IPERDRONE.0

Last updated on Mon Sep 16 2024 00:02:03 GMT+0000 (Coordinated Universal Time)

1 60520U 24149BE 24258.88032497 .00024468 00000+0 11402-2 0 9998 2 60520 97.4400 334.0273 0007426 52.1439 308.0467 15.19858925 4414
UTC large
Height (km)
Speed (km/s)
/
Latitude / Longitude
Inclination (degrees)
Orbital Period (minutes)
Azimuth
Elevation
Range (km)
Doppler Factor

Next 0 passes for location: London (51.5072 / 0.1276)

Sorry there are no passes over London.